Probability
0 0 0 0 0 0 0 0 0 0 0 0 0 0 0 6 39 58 42 29 23 10 13 23 52 55 42 48 55 65 65 52 10 0 0 0 0 0 0 0 0 0 0 0
0 0 0 0 0 0 0 0 0 0 0 0 0 0 0 13 26 35 35 23 23 13 16 39 48 74 81 68 65 58 48 39 16 13 0 0 0 0 0 0 0 0 0 3
0 0 0 0 0 0 0 0 0 0 0 0 0 0 3 3 3 6 10 6 3 13 13 39 68 87 77 65 39 19 16 13 10 3 0 0 0 0 0 3 0 0 3 0
0 0 0 0 0 0 0 0 0 0 0 0 0 0 0 0 0 0 0 0 0 6 6 26 74 71 48 26 10 3 3 3 3 0 0 0 0 0 0 0 0 0 0 0
0 0 0 0 0 0 0 0 0 0 0 0 0 0 0 0 0 0 0 0 0 6 10 39 61 45 13 3 3 0 0 0 0 0 0 0 0 0 0 0 0 0 0 0
0 0 0 0 0 0 0 0 0 0 0 0 0 0 0 0 0 0 0 0 0 3 6 6 19 13 6 0 0 0 0 0 0 0 0 0 0 0 0 0 0 0 0 0
0 0 0 0 0 0 0 0 0 0 0 0 0 0 0 0 0 0 0 0 3 6 6 13 23 19 6 0 0 0 0 0 0 0 0 0 0 0 0 0 0 0 0 0
0 0 0 0 0 0 0 0 0 0 0 0 0 0 0 0 0 0 0 0 0 0 0 0 0 0 0 0 0 0 0 0 0 0 0 0 0 0 0 0 0 0 0 0
0 0 0 0 0 0 0 0 0 0 0 0 0 0 0 0 0 0 0 0 0 0 0 0 0 0 0 0 0 0 0 0 0 0 0 0 0 0 0 0 0 0 0 0
0 0 0 0 0 0 0 0 0 0 0 0 0 0 0 0 0 0 0 0 0 0 0 0 0 0 0 0 0 0 0 0 0 0 0 0 0 0 0 0 0 0 0 0
0 0 0 0 0 0 0 0 0 0 0 0 0 0 0 0 0 0 0 0 0 0 0 0 0 0 0 0 0 0 0 0 0 0 0 0 0 0 0 0 0 0 0 0
0 0 0 0 0 0 0 0 0 0 0 0 0 0 0 0 0 0 0 0 0 0 0 0 0 0 0 0 0 0 0 0 0 0 0 0 0 0 0 0 0 0 0 0
0 0 0 0 0 0 0 0 0 0 0 0 0 0 0 0 0 0 0 0 0 0 0 0 0 0 0 0 0 0 0 0 0 0 0 0 0 0 0 0 0 0 0 0
0 0 0 0 0 0 0 0 0 0 0 0 0 0 0 0 0 0 0 0 0 0 0 0 0 0 0 0 0 0 0 0 0 0 0 0 0 0 0 0 0 0 0 0
0 0 0 0 0 0 0 0 0 0 0 0 0 0 0 0 0 0 0 0 0 0 0 0 0 0 0 0 0 0 0 0 0 0 0 0 0 0 0 0 0 0 0 0
0 0 0 0 0 0 0 0 0 0 0 0 0 0 0 0 0 0 0 0 0 0 0 0 0 0 0 0 0 0 0 0 0 0 0 0 0 0 0 0 0 0 0 0
0 0 0 0 0 0 0 0 0 0 0 0 0 0 0 0 0 0 0 0 0 0 0 0 0 0 0 0 0 0 0 0 0 0 0 0 0 0 0 0 0 0 0 0
0 0 0 0 0 0 0 0 0 0 0 0 0 0 0 0 0 0 0 0 0 0 0 0 0 0 0 0 0 0 0 0 0 0 0 0 0 0 0 0 0 0 0 0
0 0 0 0 0 0 0 0 0 0 0 0 0 0 0 0 0 0 0 0 0 0 0 0 0 0 0 0 0 0 0 0 0 0 0 0 0 0 0 0 0 0 0 0
0 0 0 0 0 0 0 0 0 0 0 0 0 0 0 0 0 0 0 0 0 0 0 0 0 0 0 0 0 0 0 0 0 0 0 0 0 0 0 0 0 0 0 0
0 0 0 0 0 0 0 0 0 0 0 0 0 0 0 0 0 0 0 0 0 0 0 0 0 0 0 0 0 0 0 0 0 0 0 0 0 0 0 0 0 0 0 0
0 0 0 0 0 0 0 0 0 0 0 0 0 0 0 0 0 0 0 0 0 0 0 0 0 0 0 0 0 0 0 0 0 0 0 0 0 0 0 0 0 0 0 0
0 0 0 0 0 0 0 0 0 0 0 0 0 0 0 0 0 0 0 0 0 0 0 0 0 0 0 0 0 0 0 0 0 0 0 0 0 0 0 0 0 0 0 0
0 0 0 0 0 0 0 0 0 0 0 0 0 0 0 0 0 0 0 0 0 0 0 0 0 0 0 0 0 0 0 0 0 0 0 0 0 0 0 0 0 0 0 0
0 0 0 0 0 0 0 0 0 0 0 0 0 0 0 0 0 0 0 0 0 0 0 0 0 0 0 0 0 0 0 0 0 0 0 0 0 0 0 0 0 0 0 0
0 0 0 0 0 0 0 0 0 0 0 0 0 0 0 0 0 0 0 0 0 0 0 0 0 0 0 0 0 0 0 0 0 0 0 0 0 0 0 0 0 0 0 0
Height
5822 5825 5827 5829 5832 5835 5838 5841 5844 5846 5847 5850 5852 5856 5859 5862 5864 5867 5870 5872 5874 5876 5878 5881 5882 5883 5884 5885 5884 5883 5882 5881 5881 5881 5881 5880 5880 5880 5881 5881 5881 5881 5882 5882
5818 5820 5822 5825 5827 5830 5833 5837 5839 5841 5843 5845 5848 5850 5852 5854 5857 5859 5861 5864 5866 5867 5870 5872 5874 5875 5876 5876 5876 5874 5873 5873 5873 5873 5872 5872 5871 5872 5873 5874 5873 5874 5874 5875
5812 5815 5817 5820 5822 5825 5827 5831 5834 5835 5837 5839 5842 5844 5846 5847 5849 5852 5854 5857 5859 5861 5862 5864 5865 5866 5867 5867 5866 5865 5865 5864 5864 5864 5863 5863 5863 5864 5865 5865 5866 5866 5865 5865
5807 5809 5812 5814 5817 5819 5821 5824 5826 5828 5830 5832 5835 5836 5839 5840 5842 5844 5846 5849 5851 5852 5854 5855 5856 5857 5857 5858 5858 5857 5856 5856 5855 5854 5853 5853 5854 5855 5856 5857 5857 5857 5857 5857
5801 5803 5805 5807 5809 5811 5814 5816 5819 5821 5823 5824 5826 5827 5831 5832 5834 5836 5838 5840 5842 5844 5845 5846 5847 5847 5848 5848 5848 5848 5847 5846 5845 5844 5843 5843 5844 5846 5847 5848 5849 5850 5851 5851
5797 5797 5799 5801 5802 5804 5805 5808 5810 5812 5815 5817 5819 5819 5821 5822 5824 5826 5829 5831 5833 5834 5835 5836 5837 5837 5838 5838 5838 5838 5838 5837 5836 5835 5835 5835 5835 5837 5839 5840 5841 5842 5843 5843
5792 5793 5793 5794 5796 5797 5798 5800 5801 5802 5805 5808 5810 5811 5811 5813 5814 5816 5819 5821 5823 5825 5826 5827 5827 5827 5828 5828 5828 5828 5828 5828 5828 5827 5827 5827 5828 5830 5831 5832 5833 5834 5834 5835
5788 5789 5788 5788 5789 5790 5791 5793 5794 5795 5796 5799 5800 5801 5802 5804 5805 5807 5809 5811 5814 5815 5816 5817 5818 5818 5818 5818 5818 5819 5819 5818 5818 5819 5820 5820 5822 5823 5824 5825 5825 5826 5826 5827
5784 5784 5784 5783 5783 5784 5785 5786 5787 5787 5787 5789 5791 5793 5794 5796 5797 5799 5801 5803 5805 5806 5808 5808 5809 5809 5809 5810 5810 5810 5810 5810 5810 5811 5812 5814 5815 5816 5817 5817 5817 5818 5818 5819
5780 5780 5779 5779 5779 5779 5780 5780 5780 5780 5780 5781 5782 5784 5787 5789 5790 5792 5793 5795 5797 5798 5799 5800 5801 5801 5801 5802 5802 5802 5801 5802 5803 5804 5806 5807 5808 5809 5809 5809 5809 5810 5810 5810
5774 5775 5774 5774 5774 5773 5773 5774 5773 5773 5773 5774 5774 5779 5781 5782 5784 5785 5786 5787 5788 5790 5791 5792 5793 5793 5794 5794 5794 5794 5794 5795 5796 5797 5799 5800 5801 5802 5802 5802 5802 5801 5801 5801
5766 5767 5767 5767 5766 5766 5766 5766 5766 5766 5766 5766 5767 5772 5773 5774 5776 5777 5778 5779 5780 5782 5783 5784 5785 5786 5786 5786 5787 5787 5787 5788 5789 5791 5792 5793 5793 5793 5793 5793 5793 5793 5793 5793
5758 5758 5758 5758 5760 5758 5757 5757 5757 5758 5758 5758 5759 5764 5765 5766 5767 5769 5770 5771 5772 5774 5775 5776 5777 5778 5779 5779 5780 5780 5781 5782 5783 5784 5784 5785 5785 5784 5784 5783 5783 5783 5784 5785
5748 5748 5748 5749 5748 5748 5748 5748 5748 5749 5749 5750 5752 5755 5756 5757 5759 5761 5762 5763 5765 5766 5767 5768 5769 5770 5771 5772 5772 5773 5774 5775 5775 5776 5776 5776 5775 5775 5774 5774 5773 5773 5774 5775
5740 5739 5738 5738 5739 5739 5738 5739 5740 5740 5741 5742 5744 5746 5748 5749 5751 5753 5754 5755 5757 5758 5759 5760 5761 5762 5762 5763 5763 5764 5765 5765 5766 5766 5766 5765 5765 5764 5764 5764 5763 5763 5764 5765
5731 5730 5730 5730 5730 5730 5730 5731 5732 5732 5733 5734 5735 5737 5739 5741 5743 5744 5746 5747 5748 5749 5750 5751 5752 5752 5752 5753 5753 5754 5754 5754 5754 5755 5755 5754 5754 5754 5753 5753 5753 5753 5754 5755
5725 5724 5723 5723 5723 5722 5723 5724 5724 5725 5725 5727 5729 5731 5732 5733 5735 5737 5738 5739 5740 5741 5741 5741 5741 5741 5741 5741 5741 5741 5741 5741 5741 5742 5742 5742 5742 5742 5742 5742 5743 5743 5744 5745
5722 5720 5719 5718 5718 5717 5719 5717 5717 5717 5718 5720 5721 5723 5724 5726 5727 5729 5730 5732 5733 5733 5732 5732 5731 5730 5730 5729 5729 5729 5729 5729 5728 5729 5729 5729 5729 5730 5730 5730 5731 5733 5734 5735
5718 5717 5716 5715 5713 5713 5713 5712 5712 5712 5713 5714 5715 5716 5718 5719 5720 5722 5723 5724 5724 5723 5723 5722 5722 5721 5720 5719 5719 5718 5717 5716 5716 5716 5716 5716 5717 5718 5718 5719 5720 5722 5723 5724
5717 5714 5713 5711 5710 5709 5710 5709 5708 5710 5709 5710 5710 5711 5712 5713 5715 5716 5716 5716 5715 5715 5715 5714 5713 5712 5711 5710 5709 5708 5707 5705 5705 5704 5705 5705 5706 5707 5708 5709 5710 5712 5713 5714
5716 5713 5710 5708 5706 5705 5705 5704 5705 5707 5707 5706 5706 5706 5707 5707 5709 5709 5709 5709 5708 5708 5707 5706 5705 5704 5703 5702 5701 5699 5698 5697 5696 5696 5696 5697 5698 5699 5700 5701 5702 5703 5704 5705
5716 5712 5709 5706 5704 5705 5702 5702 5702 5703 5702 5702 5702 5702 5702 5702 5702 5702 5702 5702 5702 5701 5701 5700 5699 5697 5696 5695 5693 5692 5691 5691 5691 5691 5691 5691 5692 5692 5693 5694 5695 5696 5697 5697
5717 5714 5709 5707 5706 5702 5700 5700 5700 5699 5699 5699 5699 5698 5697 5697 5696 5696 5696 5696 5695 5695 5694 5694 5693 5692 5690 5689 5688 5687 5687 5686 5686 5686 5686 5687 5687 5688 5688 5689 5689 5689 5690 5690
5719 5715 5711 5707 5704 5702 5700 5699 5698 5698 5697 5696 5695 5694 5693 5692 5692 5691 5691 5690 5690 5689 5689 5688 5688 5687 5686 5685 5684 5684 5683 5682 5682 5682 5682 5683 5683 5683 5684 5683 5683 5683 5683 5683
5721 5717 5713 5709 5706 5703 5701 5699 5697 5696 5695 5694 5692 5691 5690 5689 5688 5687 5686 5685 5685 5684 5684 5683 5683 5683 5682 5681 5681 5680 5680 5679 5679 5678 5678 5678 5678 5678 5678 5677 5677 5676 5676 5676
5722 5719 5715 5712 5708 5705 5703 5700 5697 5696 5694 5693 5691 5689 5687 5686 5685 5683 5682 5681 5680 5680 5679 5678 5678 5678 5678 5677 5676 5676 5675 5674 5674 5673 5672 5672 5671 5671 5671 5670 5670 5669 5668 5668
Wind_Speed
24 24 24 25 26 27 29 31 33 35 39 42 43 42 41 41 41 40 37 35 32 29 27 26 28 30 31 33 34 36 37 38 37 36 37 38 37 34 32 31 30 30 30 29
27 27 27 27 27 27 28 29 30 32 34 36 37 37 37 37 37 36 36 35 34 33 31 30 30 31 32 34 36 38 39 38 38 38 39 39 39 37 35 33 33 33 33 33
28 29 29 29 29 29 29 28 29 31 32 33 34 34 34 34 34 35 34 34 34 33 32 32 31 31 32 34 37 39 40 39 39 39 40 41 40 39 37 36 35 35 35 36
28 29 29 30 30 31 32 31 31 31 32 32 33 35 36 36 36 35 34 33 31 30 29 29 30 30 32 35 37 40 41 42 42 42 43 43 41 39 38 37 36 35 33 31
29 30 31 32 33 34 34 35 35 36 36 36 37 39 39 40 40 39 36 34 31 30 29 31 32 32 33 33 36 39 41 44 44 43 42 41 39 38 37 36 36 36 31 27
26 30 34 35 36 37 37 38 39 39 40 41 41 42 43 42 42 42 39 36 33 32 33 34 36 36 36 36 37 38 40 42 43 42 39 39 36 35 36 36 37 35 30 28
19 24 27 31 33 36 37 37 37 38 38 39 39 42 45 43 43 42 40 37 35 34 35 36 37 39 40 40 40 39 40 41 40 39 37 37 37 37 37 36 35 33 31 29
16 17 20 23 27 30 32 32 32 33 33 32 33 37 39 39 39 39 39 38 37 36 36 37 38 39 39 38 38 38 39 40 38 35 34 34 35 36 35 35 35 33 33 32
15 15 15 16 18 22 26 28 29 31 31 31 32 32 33 32 32 33 34 34 35 35 34 34 33 32 31 32 33 36 36 34 32 30 29 29 30 30 31 31 32 32 32 32
17 17 17 15 15 16 19 21 25 29 31 31 31 30 30 29 29 29 29 30 31 31 31 31 29 28 27 28 29 30 30 31 31 28 27 27 27 28 29 30 30 31 31 31
22 21 22 21 21 21 22 22 24 27 30 31 32 31 28 28 30 30 30 31 31 31 32 32 32 31 30 29 28 27 27 25 25 24 25 26 26 28 29 30 30 30 30 30
27 27 26 27 27 27 28 28 28 29 29 31 32 33 29 28 28 28 29 29 29 29 29 29 29 29 27 26 24 23 21 21 21 22 24 27 28 30 31 32 32 32 31 31
30 30 31 30 30 31 31 31 31 32 33 33 33 31 29 29 28 26 26 26 26 26 27 26 27 27 26 24 23 22 21 21 23 25 27 29 30 31 32 32 33 34 34 34
29 30 30 30 29 30 30 29 30 32 33 34 35 33 30 29 28 26 26 26 27 28 28 29 29 30 30 29 28 27 27 28 29 31 32 33 33 34 34 34 34 35 36 36
29 30 29 28 28 29 29 27 26 27 29 30 31 32 31 30 28 29 30 30 31 31 31 32 32 33 34 34 33 34 33 33 34 34 35 35 35 36 36 37 37 36 36 37
25 27 27 27 27 28 29 28 26 26 27 28 28 29 27 26 27 28 30 30 31 31 32 33 34 36 36 37 37 38 38 38 38 38 38 38 38 38 39 39 38 37 37 37
16 17 19 21 22 25 25 25 25 25 25 25 25 25 26 27 28 28 28 28 28 30 31 33 35 36 37 38 39 39 39 39 40 41 41 41 41 41 41 40 39 38 38 37
14 15 16 16 17 18 19 20 21 22 23 24 24 24 24 25 26 26 26 26 28 31 32 34 34 35 35 36 36 37 37 38 39 40 41 42 43 43 42 42 40 39 38 37
16 15 15 14 14 14 14 15 16 17 19 21 22 24 25 25 24 24 25 26 28 29 30 30 30 30 31 31 31 32 33 34 36 38 39 40 40 40 40 40 39 38 38 37
17 14 13 13 14 14 14 14 14 13 15 17 18 20 21 21 22 22 23 23 24 25 25 26 26 27 28 28 28 29 29 29 30 31 33 33 34 34 34 34 35 35 35 35
18 15 13 12 13 13 14 14 14 13 14 14 17 18 19 20 20 21 21 21 20 20 21 22 23 24 25 26 26 25 24 23 22 23 24 25 25 26 27 28 29 30 31 32
20 17 15 14 13 11 11 11 12 12 13 13 14 16 18 19 20 20 20 19 18 17 18 20 21 22 23 23 22 21 20 19 18 17 17 18 19 20 22 24 26 27 28 28
22 19 16 14 12 10 8 8 9 10 11 13 14 15 17 18 19 19 19 18 18 19 20 20 21 20 19 19 18 18 17 18 18 17 16 16 17 19 21 23 23 25 26 26
22 21 19 16 14 11 8 7 7 8 11 13 14 15 16 17 18 18 19 20 21 21 20 19 18 17 16 15 15 15 16 16 17 17 17 17 18 20 22 23 23 24 25 26
19 20 19 17 16 14 12 10 8 8 10 11 13 13 14 15 16 17 19 19 19 19 18 17 16 16 15 14 14 14 15 16 18 20 21 22 22 22 24 25 26 27 27 28
15 15 16 15 15 15 13 12 10 9 8 8 9 10 11 12 12 13 14 14 15 15 15 15 15 15 15 15 15 16 17 18 20 22 23 24 26 27 28 29 31 32 33 34
Wind_Direction
224 227 230 232 233 233 231 229 228 229 232 236 242 246 249 252 255 258 260 262 262 260 254 248 244 245 247 251 255 258 260 262 264 266 268 270 272 275 278 278 272 269 266 263
227 229 230 233 236 238 238 237 236 237 238 239 242 245 248 250 252 253 254 254 255 256 256 251 246 245 246 248 250 252 255 258 260 262 265 268 269 269 273 274 273 271 267 261
230 233 233 235 237 240 243 243 241 242 241 241 241 242 245 247 250 252 254 255 257 258 259 257 254 250 248 247 248 250 253 256 258 260 263 265 267 268 270 271 273 275 270 259
233 234 237 238 240 242 245 245 244 244 245 246 245 246 244 247 250 253 255 255 256 256 255 254 254 252 251 251 252 253 255 257 258 259 259 262 263 264 267 270 271 271 267 257
234 236 237 238 240 243 245 247 247 247 248 249 251 253 253 254 255 256 256 256 256 255 254 255 258 260 259 257 257 258 259 258 257 256 256 258 260 262 266 269 271 269 262 254
241 242 243 242 242 243 245 246 248 249 249 251 252 255 258 258 259 259 258 256 255 255 256 258 260 262 263 262 261 262 262 260 256 254 255 257 259 263 266 266 266 264 261 258
250 251 250 249 247 246 247 248 250 251 251 254 253 253 256 256 256 257 258 257 255 255 257 259 261 264 265 263 262 261 260 260 257 256 258 259 261 264 267 268 266 265 263 260
261 261 257 252 248 247 247 249 253 256 257 255 252 251 252 253 252 252 253 254 256 258 260 262 264 265 263 261 259 259 260 261 260 260 262 263 264 264 268 267 269 270 268 264
269 268 265 256 249 247 247 248 252 256 258 256 252 251 251 251 251 251 250 251 253 255 257 260 262 264 263 261 261 262 263 264 262 264 266 267 265 265 266 268 268 268 268 266
269 268 265 261 254 252 252 250 251 252 256 258 257 253 251 251 252 252 252 252 252 253 254 255 257 261 263 265 269 268 268 267 264 264 262 261 261 263 264 266 267 269 270 271
269 264 264 264 264 265 264 262 261 259 257 258 260 258 256 255 253 254 254 254 254 254 254 254 257 262 266 268 269 269 268 265 262 257 256 257 259 262 265 268 269 271 272 272
269 266 266 267 268 268 267 265 262 260 259 259 260 261 259 258 256 254 254 254 255 255 254 256 258 262 265 268 269 267 264 259 256 257 262 264 266 267 269 269 269 269 270 271
271 271 271 269 269 268 268 265 262 259 257 255 255 258 258 256 256 253 252 252 252 253 255 259 261 262 264 267 267 265 264 263 263 268 271 272 272 272 272 271 269 267 267 269
277 275 274 274 273 272 270 265 261 257 255 256 255 255 255 254 252 251 251 252 254 256 259 263 263 264 265 268 269 269 269 269 270 272 273 273 273 273 273 272 271 269 267 268
274 273 275 274 273 273 274 271 265 259 254 255 255 255 254 251 252 254 255 256 258 261 263 265 265 266 267 268 269 270 271 270 271 272 272 272 271 271 272 272 271 270 269 269
280 277 274 271 268 270 272 272 269 265 258 254 251 251 252 255 254 255 257 258 259 262 265 268 270 271 271 271 270 269 269 269 270 270 270 270 269 269 270 270 270 268 267 267
302 289 282 277 272 269 271 274 270 265 260 255 254 255 256 256 255 255 256 258 260 265 271 276 279 278 276 274 272 270 268 268 267 266 266 266 266 266 266 266 266 265 263 264
314 303 294 289 281 277 275 273 270 267 264 257 252 249 248 247 248 249 253 259 266 273 277 279 279 277 275 273 271 269 268 266 265 264 263 262 262 262 262 262 263 262 261 260
324 310 297 291 283 279 277 276 276 273 269 264 263 261 261 263 264 263 266 270 272 274 275 276 276 275 274 274 274 273 271 268 265 263 262 262 262 262 262 262 262 260 260 259
339 327 307 291 282 277 278 277 277 276 272 268 269 269 269 268 270 270 270 270 270 271 273 276 278 279 279 279 280 280 277 273 269 265 263 262 262 262 262 263 263 262 262 261
352 341 325 308 296 287 283 279 276 273 270 270 272 273 272 270 269 270 269 269 270 273 279 283 285 285 284 283 283 283 281 278 275 271 268 265 262 261 260 259 260 262 262 262
3 352 342 333 322 309 294 284 278 275 273 276 279 279 277 275 273 271 269 270 272 279 286 291 292 290 287 286 284 282 280 278 276 276 272 267 264 260 256 257 259 261 260 258
17 12 5 358 348 337 320 302 292 286 284 287 289 288 285 282 279 275 272 271 276 283 290 294 295 293 290 288 285 281 276 273 272 271 268 265 261 256 255 257 259 260 261 262
20 22 23 21 14 6 356 340 319 305 300 299 297 295 293 290 286 281 279 278 281 285 287 290 290 289 287 286 283 278 274 269 265 262 260 258 258 258 259 260 262 266 269 271
14 19 24 27 28 25 22 13 356 336 323 313 307 302 298 294 289 285 283 282 281 281 282 283 283 283 284 285 286 282 276 272 269 267 266 263 262 264 263 262 263 265 268 271
0 7 15 23 27 30 27 25 20 8 351 335 323 315 309 302 296 291 288 286 285 283 283 282 282 282 282 284 286 288 286 284 282 281 278 275 271 267 264 263 261 261 263 266